Location: Lima
(44.6384°N, 112.5920°W)
Time: 20:06:10
(UTC+00:00)

NOAA 19 - Visible Passes

Search period start: 22 April 2024 00:00
Search period end: 02 May 2024 00:00
Orbit: 838 x 860 km, 99.1° (Epoch: 22 April)

Date Brightness Start Highest point End Pass type
(mag) Time Alt. Az. Time Alt. Az. Time Alt. Az.
22 Apr 5.2 03:42:22 15° SSE 03:46:50 65° ENE 03:52:15 10° N visible
22 Apr 7.4 05:24:20 10° SW 05:27:56 18° W 05:31:40 10° NW visible
23 Apr 5.5 03:29:52 13° SE 03:34:37 51° ENE 03:39:54 10° N visible
23 Apr 7.1 05:11:50 12° SW 05:15:32 23° W 05:19:51 10° NW visible
24 Apr 5.8 03:17:22 10° SE 03:22:25 41° ENE 03:27:30 10° N visible
24 Apr 6.7 04:59:19 14° SSW 05:03:09 30° W 05:07:54 10° NW visible
25 Apr 6.1 03:05:26 10° SE 03:10:14 33° ENE 03:15:02 10° N visible
25 Apr 6.4 04:46:49 16° SSW 04:50:46 38° W 04:55:50 10° NNW visible
26 Apr 6.3 02:53:37 10° ESE 02:58:04 26° ENE 03:02:32 10° N visible
26 Apr 6.0 04:34:19 16° S 04:38:26 48° W 04:43:42 10° NNW visible
27 Apr 5.6 04:21:49 16° S 04:26:06 61° WSW 04:31:31 10° NNW visible
28 Apr 5.3 04:09:18 15° S 04:13:48 78° WSW 04:19:17 10° NNW visible
28 Apr 7.8 05:54:34 10° W 05:55:18 10° W 05:56:01 10° WNW visible
29 Apr 5.1 03:56:48 14° SSE 04:01:31 84° ENE 04:07:00 10° NNW visible
29 Apr 7.6 05:40:08 10° WSW 05:42:49 14° W 05:45:31 10° WNW visible
30 Apr 5.2 03:44:17 12° SSE 03:49:15 67° ENE 03:54:41 10° N visible
30 Apr 7.4 05:26:46 10° SW 05:30:22 18° W 05:34:00 10° NW visible
01 May 5.5 03:31:46 10° SE 03:37:01 53° ENE 03:42:18 10° N visible
01 May 7.1 05:13:44 10° SW 05:17:57 23° W 05:22:12 10° NW visible
